Time,TemperatureF,DewpointF,PressureIn,WindDirection,WindDirectionDegrees,WindSpeedMPH,WindSpeedGustMPH,Humidity,HourlyPrecipIn,Conditions,Clouds,dailyrainin,SoftwareType,DateUTC
2013-02-23 00:01:00,46.2,41.4,30.06,West,262,0.0,1.0,83,0.00,,,0.00,meteohub,2013-02-23 08:01:00,
2013-02-23 00:06:00,46.0,41.2,30.06,West,262,0.0,1.0,83,0.00,,,0.00,meteohub,2013-02-23 08:06:00,
2013-02-23 00:11:00,45.7,40.8,30.06,West,262,0.0,0.0,83,0.00,,,0.00,meteohub,2013-02-23 08:11:00,
2013-02-23 00:16:00,45.1,40.3,30.06,West,262,0.0,0.0,83,0.00,,,0.00,meteohub,2013-02-23 08:16:00,
2013-02-23 00:21:00,44.8,40.5,30.06,West,262,0.0,0.0,85,0.00,,,0.00,meteohub,2013-02-23 08:21:00,
2013-02-23 00:26:00,44.2,40.1,30.06,West,262,0.0,0.0,85,0.00,,,0.00,meteohub,2013-02-23 08:26:00,
2013-02-23 00:31:00,43.9,39.9,30.06,West,262,0.0,0.0,86,0.00,,,0.00,meteohub,2013-02-23 08:31:00,
2013-02-23 00:36:00,43.5,39.9,30.06,West,262,0.0,0.0,87,0.00,,,0.00,meteohub,2013-02-23 08:36:00,
2013-02-23 00:41:00,43.5,40.3,30.07,West,262,0.0,0.0,88,0.00,,,0.00,meteohub,2013-02-23 08:41:00,
2013-02-23 00:46:00,43.5,40.3,30.07,West,262,0.0,4.0,88,0.00,,,0.00,meteohub,2013-02-23 08:46:00,
2013-02-23 00:51:00,43.9,40.6,30.07,West,262,0.0,4.0,88,0.00,,,0.00,meteohub,2013-02-23 08:51:00,
2013-02-23 00:56:00,44.2,41.0,30.06,West,262,0.0,1.0,88,0.00,,,0.00,meteohub,2013-02-23 08:56:00,
2013-02-23 01:01:00,44.4,40.8,30.06,West,262,0.0,1.0,87,0.00,,,0.00,meteohub,2013-02-23 09:01:00,
2013-02-23 01:06:00,44.4,40.8,30.06,West,262,0.0,0.0,87,0.00,,,0.00,meteohub,2013-02-23 09:06:00,
2013-02-23 01:11:00,44.6,41.0,30.06,West,262,0.0,1.0,87,0.00,,,0.00,meteohub,2013-02-23 09:11:00,
2013-02-23 01:16:00,44.6,41.0,30.06,West,262,0.0,1.0,87,0.00,,,0.00,meteohub,2013-02-23 09:16:00,
2013-02-23 01:21:00,44.4,40.5,30.06,West,262,0.0,1.0,86,0.00,,,0.00,meteohub,2013-02-23 09:21:00,
2013-02-23 01:27:00,44.4,40.8,30.05,West,262,0.0,0.0,87,0.00,,,0.00,meteohub,2013-02-23 09:27:00,
2013-02-23 01:31:00,44.4,40.8,30.05,West,262,0.0,0.0,87,0.00,,,0.00,meteohub,2013-02-23 09:31:00,
2013-02-23 01:36:00,44.2,40.6,30.05,West,262,0.0,0.0,87,0.00,,,0.00,meteohub,2013-02-23 09:36:00,
2013-02-23 01:42:00,44.2,41.0,30.05,West,262,0.0,0.0,88,0.00,,,0.00,meteohub,2013-02-23 09:42:00,
2013-02-23 01:47:00,44.2,41.0,30.05,West,262,0.0,0.0,88,0.00,,,0.00,meteohub,2013-02-23 09:47:00,
2013-02-23 01:52:00,44.2,41.0,30.05,West,262,0.0,0.0,88,0.00,,,0.00,meteohub,2013-02-23 09:52:00,
2013-02-23 01:57:00,44.2,41.0,30.05,West,262,0.0,0.0,88,0.00,,,0.00,meteohub,2013-02-23 09:57:00,
2013-02-23 02:02:00,44.2,41.0,30.05,West,262,0.0,0.0,88,0.00,,,0.00,meteohub,2013-02-23 10:02:00,
2013-02-23 02:07:00,44.2,41.0,30.05,West,262,0.0,0.0,88,0.00,,,0.00,meteohub,2013-02-23 10:07:00,
2013-02-23 02:12:00,44.1,41.0,30.04,West,262,0.0,0.0,89,0.00,,,0.00,meteohub,2013-02-23 10:12:00,
2013-02-23 02:17:00,44.1,41.0,30.04,West,262,0.0,0.0,89,0.00,,,0.00,meteohub,2013-02-23 10:17:00,
2013-02-23 02:22:00,44.1,41.0,30.04,West,262,0.0,0.0,89,0.00,,,0.00,meteohub,2013-02-23 10:22:00,
2013-02-23 02:27:00,44.2,41.2,30.03,West,262,0.0,0.0,89,0.00,,,0.00,meteohub,2013-02-23 10:27:00,
2013-02-23 02:32:00,44.2,41.5,30.03,West,262,0.0,0.0,90,0.00,,,0.00,meteohub,2013-02-23 10:32:00,
2013-02-23 02:37:00,44.4,41.7,30.03,West,262,0.0,0.0,90,0.00,,,0.00,meteohub,2013-02-23 10:37:00,
2013-02-23 02:42:00,44.6,41.5,30.04,West,262,0.0,0.0,89,0.00,,,0.00,meteohub,2013-02-23 10:42:00,
2013-02-23 02:47:00,45.0,42.3,30.04,West,262,1.0,0.0,90,0.00,,,0.00,meteohub,2013-02-23 10:47:00,
2013-02-23 02:52:00,45.1,42.1,30.04,West,262,0.0,2.0,89,0.00,,,0.00,meteohub,2013-02-23 10:52:00,
2013-02-23 02:57:00,45.7,43.0,30.03,West,262,0.0,3.0,90,0.00,,,0.00,meteohub,2013-02-23 10:57:00,
2013-02-23 03:02:00,45.9,43.2,30.03,West,262,0.0,3.0,90,0.00,,,0.00,meteohub,2013-02-23 11:02:00,
2013-02-23 03:07:00,46.0,43.5,30.03,West,262,0.0,3.0,91,0.00,,,0.00,meteohub,2013-02-23 11:07:00,
2013-02-23 03:12:00,46.2,43.7,30.03,West,262,0.0,1.0,91,0.00,,,0.00,meteohub,2013-02-23 11:12:00,
2013-02-23 03:17:00,46.6,44.4,30.03,West,263,0.0,5.0,92,0.00,,,0.00,meteohub,2013-02-23 11:17:00,
2013-02-23 03:22:00,46.8,44.2,30.03,West,263,0.0,5.0,91,0.00,,,0.00,meteohub,2013-02-23 11:22:00,
2013-02-23 03:27:00,46.9,44.4,30.04,West,270,0.0,5.0,91,0.00,,,0.00,meteohub,2013-02-23 11:27:00,
2013-02-23 03:32:00,46.8,44.1,30.04,West,270,0.0,7.0,90,0.00,,,0.00,meteohub,2013-02-23 11:32:00,
2013-02-23 03:37:00,46.6,43.5,30.04,West,270,0.0,7.0,89,0.00,,,0.00,meteohub,2013-02-23 11:37:00,
2013-02-23 03:42:00,46.4,43.7,30.04,West,270,0.0,1.0,90,0.00,,,0.00,meteohub,2013-02-23 11:42:00,
2013-02-23 03:47:00,46.2,43.5,30.04,West,270,0.0,1.0,90,0.00,,,0.00,meteohub,2013-02-23 11:47:00,
2013-02-23 03:52:00,46.0,43.5,30.04,West,270,0.0,1.0,91,0.00,,,0.00,meteohub,2013-02-23 11:52:00,
2013-02-23 03:57:00,45.9,43.2,30.04,West,270,0.0,1.0,90,0.00,,,0.00,meteohub,2013-02-23 11:57:00,
2013-02-23 04:02:00,45.7,43.0,30.04,West,270,0.0,1.0,90,0.00,,,0.00,meteohub,2013-02-23 12:02:00,
2013-02-23 04:07:00,45.3,42.6,30.04,West,270,0.0,0.0,90,0.00,,,0.00,meteohub,2013-02-23 12:07:00,
2013-02-23 04:12:00,45.0,42.3,30.03,West,270,0.0,0.0,90,0.00,,,0.00,meteohub,2013-02-23 12:12:00,
2013-02-23 04:17:00,44.4,41.7,30.03,West,270,0.0,0.0,90,0.00,,,0.00,meteohub,2013-02-23 12:17:00,
2013-02-23 04:22:00,44.1,41.5,30.03,West,270,0.0,0.0,91,0.00,,,0.00,meteohub,2013-02-23 12:22:00,
2013-02-23 04:27:00,43.9,41.7,30.04,West,270,1.0,0.0,92,0.00,,,0.00,meteohub,2013-02-23 12:27:00,
2013-02-23 04:32:00,43.7,41.5,30.04,West,270,0.0,2.0,92,0.00,,,0.00,meteohub,2013-02-23 12:32:00,
2013-02-23 04:37:00,43.7,41.5,30.04,West,270,1.0,2.0,92,0.00,,,0.00,meteohub,2013-02-23 12:37:00,
2013-02-23 04:42:00,43.5,41.4,30.03,West,270,0.0,2.0,92,0.00,,,0.00,meteohub,2013-02-23 12:42:00,
2013-02-23 04:47:00,43.5,41.0,30.03,West,270,0.0,2.0,91,0.00,,,0.00,meteohub,2013-02-23 12:47:00,
2013-02-23 04:52:00,43.5,41.0,30.03,West,270,0.0,3.0,91,0.00,,,0.00,meteohub,2013-02-23 12:52:00,
2013-02-23 04:57:00,43.7,41.5,30.04,West,270,0.0,3.0,92,0.00,,,0.00,meteohub,2013-02-23 12:57:00,
2013-02-23 05:02:00,43.7,41.2,30.04,West,270,0.0,3.0,91,0.00,,,0.00,meteohub,2013-02-23 13:02:00,
2013-02-23 05:07:00,43.5,40.8,30.04,West,270,3.0,3.0,90,0.00,,,0.00,meteohub,2013-02-23 13:07:00,
2013-02-23 05:12:00,43.3,40.6,30.04,West,270,0.0,5.0,90,0.00,,,0.00,meteohub,2013-02-23 13:12:00,
2013-02-23 05:17:00,43.3,40.6,30.04,West,269,0.0,5.0,90,0.00,,,0.00,meteohub,2013-02-23 13:17:00,
2013-02-23 05:22:00,43.3,40.3,30.04,West,269,2.0,6.0,89,0.00,,,0.00,meteohub,2013-02-23 13:22:00,
2013-02-23 05:27:00,43.3,40.1,30.04,West,269,0.0,6.0,88,0.00,,,0.00,meteohub,2013-02-23 13:27:00,
2013-02-23 05:32:00,43.5,39.9,30.04,West,268,2.0,6.0,87,0.00,,,0.00,meteohub,2013-02-23 13:32:00,
2013-02-23 05:37:00,43.9,39.9,30.04,West,267,0.0,7.0,86,0.00,,,0.00,meteohub,2013-02-23 13:37:00,
2013-02-23 05:42:00,43.9,39.7,30.05,West,267,2.0,7.0,85,0.00,,,0.00,meteohub,2013-02-23 13:42:00,
2013-02-23 05:47:00,43.9,39.7,30.05,West,268,0.0,8.0,85,0.00,,,0.00,meteohub,2013-02-23 13:47:00,
2013-02-23 05:52:00,43.9,39.4,30.05,West,265,2.0,8.0,84,0.00,,,0.00,meteohub,2013-02-23 13:52:00,
2013-02-23 05:57:00,44.1,39.6,30.05,West,265,1.0,8.0,84,0.00,,,0.00,meteohub,2013-02-23 13:57:00,
2013-02-23 06:02:00,44.2,39.4,30.05,WNW,284,2.0,13.0,83,0.00,,,0.00,meteohub,2013-02-23 14:02:00,
2013-02-23 06:07:00,44.4,39.2,30.05,WNW,286,3.0,13.0,82,0.00,,,0.00,meteohub,2013-02-23 14:07:00,
2013-02-23 06:12:00,44.6,39.4,30.06,WNW,283,0.0,18.0,82,0.00,,,0.00,meteohub,2013-02-23 14:12:00,
2013-02-23 06:17:00,44.4,39.0,30.06,WNW,283,0.0,18.0,81,0.00,,,0.00,meteohub,2013-02-23 14:17:00,
2013-02-23 06:22:00,44.4,39.0,30.06,WNW,283,2.0,18.0,81,0.00,,,0.00,meteohub,2013-02-23 14:22:00,
2013-02-23 06:27:00,44.2,39.0,30.07,WNW,283,0.0,4.0,82,0.00,,,0.00,meteohub,2013-02-23 14:27:00,
2013-02-23 06:32:00,44.1,38.8,30.07,WNW,283,1.0,4.0,82,0.00,,,0.00,meteohub,2013-02-23 14:32:00,
2013-02-23 06:37:00,43.9,38.7,30.07,WNW,284,0.0,2.0,82,0.00,,,0.00,meteohub,2013-02-23 14:37:00,
2013-02-23 06:42:00,43.5,39.0,30.07,WNW,284,0.0,4.0,84,0.00,,,0.00,meteohub,2013-02-23 14:42:00,
2013-02-23 06:47:00,43.2,38.7,30.07,WNW,284,0.0,4.0,84,0.00,,,0.00,meteohub,2013-02-23 14:47:00,
2013-02-23 06:52:00,42.8,38.3,30.07,WNW,284,0.0,3.0,84,0.00,,,0.00,meteohub,2013-02-23 14:52:00,
2013-02-23 06:57:00,42.4,37.9,30.08,WNW,284,2.0,3.0,84,0.00,,,0.00,meteohub,2013-02-23 14:57:00,
2013-02-23 07:02:00,42.3,37.4,30.08,WNW,284,0.0,3.0,83,0.00,,,0.00,meteohub,2013-02-23 15:02:00,
2013-02-23 07:07:00,42.3,37.8,30.08,WNW,284,0.0,2.0,84,0.00,,,0.00,meteohub,2013-02-23 15:07:00,
2013-02-23 07:12:00,42.3,37.4,30.09,WNW,284,0.0,2.0,83,0.00,,,0.00,meteohub,2013-02-23 15:12:00,
2013-02-23 07:17:00,42.1,37.6,30.09,WNW,284,0.0,2.0,84,0.00,,,0.00,meteohub,2013-02-23 15:17:00,
2013-02-23 07:22:00,41.9,36.9,30.09,WNW,284,0.0,2.0,82,0.00,,,0.00,meteohub,2013-02-23 15:22:00,
2013-02-23 07:27:00,41.7,36.7,30.09,WNW,284,0.0,2.0,82,0.00,,,0.00,meteohub,2013-02-23 15:27:00,
2013-02-23 07:32:00,41.9,36.5,30.09,WNW,284,1.0,2.0,81,0.00,,,0.00,meteohub,2013-02-23 15:32:00,
2013-02-23 07:37:00,42.3,36.5,30.09,WNW,285,0.0,6.0,80,0.00,,,0.00,meteohub,2013-02-23 15:37:00,
2013-02-23 07:42:00,42.6,36.3,30.11,WNW,284,1.0,6.0,78,0.00,,,0.00,meteohub,2013-02-23 15:42:00,
2013-02-23 07:47:00,43.0,36.3,30.11,WNW,284,0.0,6.0,77,0.00,,,0.00,meteohub,2013-02-23 15:47:00,
2013-02-23 07:52:00,43.3,36.0,30.11,WNW,284,2.0,5.0,75,0.00,,,0.00,meteohub,2013-02-23 15:52:00,
2013-02-23 07:57:00,44.1,36.3,30.11,WNW,284,2.0,4.0,74,0.00,,,0.00,meteohub,2013-02-23 15:57:00,
2013-02-23 08:02:00,44.6,36.9,30.11,West,281,0.0,4.0,74,0.00,,,0.00,meteohub,2013-02-23 16:02:00,
2013-02-23 08:07:00,45.3,36.9,30.11,WNW,282,0.0,4.0,72,0.00,,,0.00,meteohub,2013-02-23 16:07:00,
2013-02-23 08:12:00,46.0,36.5,30.11,WNW,282,1.0,4.0,69,0.00,,,0.00,meteohub,2013-02-23 16:12:00,
2013-02-23 08:17:00,46.2,36.7,30.11,West,279,3.0,3.0,69,0.00,,,0.00,meteohub,2013-02-23 16:17:00,
2013-02-23 08:22:00,46.6,36.5,30.11,West,279,0.0,5.0,68,0.00,,,0.00,meteohub,2013-02-23 16:22:00,
2013-02-23 08:27:00,46.8,36.3,30.12,West,281,2.0,5.0,67,0.00,,,0.00,meteohub,2013-02-23 16:27:00,
2013-02-23 08:32:00,47.1,36.7,30.12,West,281,0.0,5.0,67,0.00,,,0.00,meteohub,2013-02-23 16:32:00,
2013-02-23 08:37:00,47.7,36.9,30.12,West,281,1.0,4.0,66,0.00,,,0.00,meteohub,2013-02-23 16:37:00,
2013-02-23 08:42:00,47.8,36.7,30.12,West,281,2.0,3.0,65,0.00,,,0.00,meteohub,2013-02-23 16:42:00,
2013-02-23 08:47:00,47.8,35.8,30.12,West,280,0.0,5.0,63,0.00,,,0.00,meteohub,2013-02-23 16:47:00,
2013-02-23 08:52:00,47.8,35.8,30.12,SW,236,2.0,6.0,63,0.00,,,0.00,meteohub,2013-02-23 16:52:00,
2013-02-23 08:57:00,47.8,35.8,30.13,WSW,237,0.0,7.0,63,0.00,,,0.00,meteohub,2013-02-23 16:57:00,
2013-02-23 09:02:00,48.2,36.1,30.13,SW,236,5.0,7.0,63,0.00,,,0.00,meteohub,2013-02-23 17:02:00,
2013-02-23 09:07:00,48.6,36.9,30.13,SW,233,2.0,5.0,64,0.00,,,0.00,meteohub,2013-02-23 17:07:00,
2013-02-23 09:12:00,48.6,35.8,30.13,SW,236,2.0,5.0,61,0.00,,,0.00,meteohub,2013-02-23 17:12:00,
2013-02-23 09:17:00,48.7,36.0,30.13,WSW,244,2.0,6.0,61,0.00,,,0.00,meteohub,2013-02-23 17:17:00,
2013-02-23 09:22:00,48.9,36.1,30.13,WSW,240,0.0,6.0,61,0.00,,,0.00,meteohub,2013-02-23 17:22:00,
2013-02-23 09:27:00,49.5,36.5,30.13,WSW,242,1.0,6.0,61,0.00,,,0.00,meteohub,2013-02-23 17:27:00,
2013-02-23 09:32:00,49.8,36.1,30.13,WSW,244,1.0,6.0,59,0.00,,,0.00,meteohub,2013-02-23 17:32:00,
2013-02-23 09:37:00,49.8,36.1,30.13,WSW,245,1.0,5.0,59,0.00,,,0.00,meteohub,2013-02-23 17:37:00,
2013-02-23 09:42:00,50.2,36.3,30.13,WSW,246,3.0,6.0,59,0.00,,,0.00,meteohub,2013-02-23 17:42:00,
2013-02-23 09:47:00,50.7,36.5,30.13,WSW,246,3.0,6.0,58,0.00,,,0.00,meteohub,2013-02-23 17:47:00,
2013-02-23 09:52:00,51.1,36.0,30.13,WSW,246,0.0,6.0,56,0.00,,,0.00,meteohub,2013-02-23 17:52:00,
2013-02-23 09:57:00,51.3,36.1,30.12,WSW,246,2.0,5.0,56,0.00,,,0.00,meteohub,2013-02-23 17:57:00,
2013-02-23 10:02:00,51.4,36.3,30.12,WSW,246,2.0,5.0,56,0.00,,,0.00,meteohub,2013-02-23 18:02:00,
2013-02-23 10:07:00,51.8,36.7,30.12,WSW,246,0.0,5.0,56,0.00,,,0.00,meteohub,2013-02-23 18:07:00,
2013-02-23 10:12:00,52.0,36.3,30.12,WSW,257,2.0,7.0,55,0.00,,,0.00,meteohub,2013-02-23 18:12:00,
2013-02-23 10:17:00,52.2,36.9,30.12,WSW,257,0.0,8.0,56,0.00,,,0.00,meteohub,2013-02-23 18:17:00,
2013-02-23 10:22:00,52.3,35.8,30.12,WSW,248,3.0,8.0,53,0.00,,,0.00,meteohub,2013-02-23 18:22:00,
2013-02-23 10:27:00,52.0,35.4,30.12,WSW,248,1.0,8.0,53,0.00,,,0.00,meteohub,2013-02-23 18:27:00,
2013-02-23 10:32:00,52.3,36.1,30.12,WSW,248,4.0,6.0,54,0.00,,,0.00,meteohub,2013-02-23 18:32:00,
2013-02-23 10:37:00,52.9,37.2,30.12,WSW,248,3.0,4.0,55,0.00,,,0.00,meteohub,2013-02-23 18:37:00,
2013-02-23 10:42:00,53.1,35.4,30.12,WSW,249,2.0,5.0,51,0.00,,,0.00,meteohub,2013-02-23 18:42:00,
2013-02-23 10:47:00,53.1,35.4,30.12,West,262,0.0,6.0,51,0.00,,,0.00,meteohub,2013-02-23 18:47:00,
2013-02-23 10:52:00,53.2,35.1,30.12,West,261,1.0,7.0,50,0.00,,,0.00,meteohub,2013-02-23 18:52:00,
2013-02-23 10:57:00,53.8,35.6,30.12,West,262,1.0,10.0,50,0.00,,,0.00,meteohub,2013-02-23 18:57:00,
2013-02-23 11:02:00,54.1,36.9,30.12,West,262,0.0,10.0,52,0.00,,,0.00,meteohub,2013-02-23 19:02:00,
2013-02-23 11:07:00,54.9,35.6,30.12,West,261,3.0,4.0,48,0.00,,,0.00,meteohub,2013-02-23 19:07:00,
2013-02-23 11:12:00,54.3,35.1,30.11,WNW,283,1.0,7.0,48,0.00,,,0.00,meteohub,2013-02-23 19:12:00,
2013-02-23 11:17:00,54.7,34.9,30.11,West,277,2.0,7.0,47,0.00,,,0.00,meteohub,2013-02-23 19:17:00,
2013-02-23 11:22:00,54.5,34.2,30.11,West,277,0.0,7.0,46,0.00,,,0.00,meteohub,2013-02-23 19:22:00,
2013-02-23 11:27:00,54.7,35.4,30.11,West,277,5.0,7.0,48,0.00,,,0.00,meteohub,2013-02-23 19:27:00,
2013-02-23 11:32:00,54.9,35.1,30.11,West,275,2.0,7.0,47,0.00,,,0.00,meteohub,2013-02-23 19:32:00,
2013-02-23 11:37:00,55.2,34.9,30.11,West,275,0.0,6.0,46,0.00,,,0.00,meteohub,2013-02-23 19:37:00,
2013-02-23 11:42:00,55.4,34.3,30.10,West,275,0.0,6.0,45,0.00,,,0.00,meteohub,2013-02-23 19:42:00,
2013-02-23 11:47:00,55.6,34.5,30.10,West,276,1.0,6.0,45,0.00,,,0.00,meteohub,2013-02-23 19:47:00,
2013-02-23 11:52:00,55.9,33.8,30.10,West,276,0.0,5.0,43,0.00,,,0.00,meteohub,2013-02-23 19:52:00,
2013-02-23 11:57:00,55.9,34.3,30.10,West,276,0.0,5.0,44,0.00,,,0.00,meteohub,2013-02-23 19:57:00,
2013-02-23 12:02:00,55.9,33.8,30.10,West,276,0.0,5.0,43,0.00,,,0.00,meteohub,2013-02-23 20:02:00,
2013-02-23 12:07:00,55.9,34.3,30.10,WSW,252,4.0,7.0,44,0.00,,,0.00,meteohub,2013-02-23 20:07:00,
2013-02-23 12:12:00,55.9,33.8,30.09,WSW,257,2.0,9.0,43,0.00,,,0.00,meteohub,2013-02-23 20:12:00,
2013-02-23 12:17:00,55.8,33.6,30.09,SW,236,3.0,9.0,43,0.00,,,0.00,meteohub,2013-02-23 20:17:00,
2013-02-23 12:22:00,55.8,33.6,30.09,WSW,237,1.0,7.0,43,0.00,,,0.00,meteohub,2013-02-23 20:22:00,
2013-02-23 12:27:00,55.8,32.4,30.09,WSW,242,2.0,7.0,41,0.00,,,0.00,meteohub,2013-02-23 20:27:00,
2013-02-23 12:32:00,55.8,31.8,30.09,SSW,202,4.0,6.0,40,0.00,,,0.00,meteohub,2013-02-23 20:32:00,
2013-02-23 12:37:00,55.8,31.1,30.09,SW,218,1.0,6.0,39,0.00,,,0.00,meteohub,2013-02-23 20:37:00,
2013-02-23 12:42:00,55.8,31.8,30.08,West,269,1.0,6.0,40,0.00,,,0.00,meteohub,2013-02-23 20:42:00,
2013-02-23 12:47:00,56.1,31.5,30.08,West,262,1.0,9.0,39,0.00,,,0.00,meteohub,2013-02-23 20:47:00,
2013-02-23 12:52:00,56.1,31.5,30.08,West,271,3.0,9.0,39,0.00,,,0.00,meteohub,2013-02-23 20:52:00,
2013-02-23 12:57:00,56.1,31.5,30.07,West,264,3.0,9.0,39,0.00,,,0.00,meteohub,2013-02-23 20:57:00,
2013-02-23 13:02:00,55.9,31.3,30.07,WSW,242,1.0,7.0,39,0.00,,,0.00,meteohub,2013-02-23 21:02:00,
2013-02-23 13:07:00,55.9,32.0,30.07,WSW,243,1.0,7.0,40,0.00,,,0.00,meteohub,2013-02-23 21:07:00,
2013-02-23 13:12:00,55.9,30.7,30.07,WSW,246,1.0,5.0,38,0.00,,,0.00,meteohub,2013-02-23 21:12:00,
2013-02-23 13:17:00,55.8,30.6,30.07,WSW,245,1.0,5.0,38,0.00,,,0.00,meteohub,2013-02-23 21:17:00,
2013-02-23 13:22:00,55.6,30.4,30.07,SW,229,1.0,5.0,38,0.00,,,0.00,meteohub,2013-02-23 21:22:00,
2013-02-23 13:27:00,55.8,29.8,30.06,WSW,248,2.0,7.0,37,0.00,,,0.00,meteohub,2013-02-23 21:27:00,
2013-02-23 13:32:00,55.8,29.8,30.06,SW,230,4.0,7.0,37,0.00,,,0.00,meteohub,2013-02-23 21:32:00,
2013-02-23 13:37:00,55.9,30.0,30.06,WSW,246,2.0,7.0,37,0.00,,,0.00,meteohub,2013-02-23 21:37:00,
2013-02-23 13:42:00,55.9,29.3,30.06,NW,317,3.0,9.0,36,0.00,,,0.00,meteohub,2013-02-23 21:42:00,
2013-02-23 13:47:00,55.9,30.7,30.06,NW,318,4.0,9.0,38,0.00,,,0.00,meteohub,2013-02-23 21:47:00,
2013-02-23 13:52:00,55.9,30.0,30.06,WSW,249,0.0,9.0,37,0.00,,,0.00,meteohub,2013-02-23 21:52:00,
2013-02-23 13:57:00,55.8,31.1,30.05,WSW,243,3.0,9.0,39,0.00,,,0.00,meteohub,2013-02-23 21:57:00,
2013-02-23 14:02:00,55.8,30.6,30.05,WSW,250,0.0,9.0,38,0.00,,,0.00,meteohub,2013-02-23 22:02:00,
2013-02-23 14:07:00,55.8,30.6,30.05,SW,229,0.0,6.0,38,0.00,,,0.00,meteohub,2013-02-23 22:07:00,
2013-02-23 14:12:00,55.8,30.6,30.05,SW,221,0.0,9.0,38,0.00,,,0.00,meteohub,2013-02-23 22:12:00,
2013-02-23 14:17:00,55.8,30.6,30.05,West,269,2.0,9.0,38,0.00,,,0.00,meteohub,2013-02-23 22:17:00,
2013-02-23 14:22:00,55.6,31.1,30.05,SW,236,0.0,9.0,39,0.00,,,0.00,meteohub,2013-02-23 22:22:00,
2013-02-23 14:27:00,55.8,30.6,30.04,South,178,0.0,7.0,38,0.00,,,0.00,meteohub,2013-02-23 22:27:00,
2013-02-23 14:32:00,55.8,30.6,30.04,South,189,0.0,7.0,38,0.00,,,0.00,meteohub,2013-02-23 22:32:00,
2013-02-23 14:37:00,55.8,30.6,30.04,South,191,0.0,7.0,38,0.00,,,0.00,meteohub,2013-02-23 22:37:00,
2013-02-23 14:42:00,55.8,29.8,30.04,SSW,193,0.0,7.0,37,0.00,,,0.00,meteohub,2013-02-23 22:42:00,
2013-02-23 14:47:00,55.6,29.7,30.04,SSW,210,2.0,5.0,37,0.00,,,0.00,meteohub,2013-02-23 22:47:00,
2013-02-23 14:52:00,55.4,30.2,30.04,SSW,210,0.0,6.0,38,0.00,,,0.00,meteohub,2013-02-23 22:52:00,
2013-02-23 14:57:00,55.0,29.8,30.05,SW,221,0.0,6.0,38,0.00,,,0.00,meteohub,2013-02-23 22:57:00,
2013-02-23 15:02:00,55.2,30.0,30.05,WSW,238,2.0,5.0,38,0.00,,,0.00,meteohub,2013-02-23 23:02:00,
2013-02-23 15:07:00,55.2,29.5,30.05,West,276,2.0,9.0,37,0.00,,,0.00,meteohub,2013-02-23 23:07:00,
2013-02-23 15:13:00,55.2,30.0,30.04,West,271,0.0,9.0,38,0.00,,,0.00,meteohub,2013-02-23 23:13:00,
2013-02-23 15:17:00,55.0,33.4,30.04,West,271,1.0,9.0,44,0.00,,,0.00,meteohub,2013-02-23 23:17:00,
2013-02-23 15:23:00,54.7,32.5,30.04,West,271,2.0,7.0,43,0.00,,,0.00,meteohub,2013-02-23 23:23:00,
2013-02-23 15:28:00,54.7,30.9,30.04,WSW,239,4.0,5.0,40,0.00,,,0.00,meteohub,2013-02-23 23:28:00,
2013-02-23 15:33:00,55.0,30.6,30.04,SW,234,0.0,7.0,39,0.00,,,0.00,meteohub,2013-02-23 23:33:00,
2013-02-23 15:38:00,54.9,31.6,30.04,SW,234,0.0,7.0,41,0.00,,,0.00,meteohub,2013-02-23 23:38:00,
2013-02-23 15:43:00,54.5,31.8,30.04,SW,234,0.0,7.0,42,0.00,,,0.00,meteohub,2013-02-23 23:43:00,
2013-02-23 15:48:00,54.1,31.5,30.04,SW,234,0.0,6.0,42,0.00,,,0.00,meteohub,2013-02-23 23:48:00,
2013-02-23 15:53:00,54.0,32.5,30.04,SW,234,0.0,3.0,44,0.00,,,0.00,meteohub,2013-02-23 23:53:00,
2013-02-23 15:58:00,53.8,31.8,30.03,SW,234,0.0,3.0,43,0.00,,,0.00,meteohub,2013-02-23 23:58:00,
2013-02-23 16:03:00,53.6,33.8,30.03,SW,234,0.0,4.0,47,0.00,,,0.00,meteohub,2013-02-24 00:03:00,
2013-02-23 16:07:00,53.2,34.5,30.03,SW,234,1.0,4.0,49,0.00,,,0.00,meteohub,2013-02-24 00:07:00,
2013-02-23 16:13:00,53.1,33.8,30.04,SW,234,0.0,4.0,48,0.00,,,0.00,meteohub,2013-02-24 00:13:00,
2013-02-23 16:17:00,53.1,32.4,30.04,SW,234,1.0,3.0,45,0.00,,,0.00,meteohub,2013-02-24 00:17:00,
2013-02-23 16:23:00,52.9,34.2,30.04,SW,234,0.0,4.0,49,0.00,,,0.00,meteohub,2013-02-24 00:23:00,
2013-02-23 16:28:00,52.5,34.3,30.04,SW,234,0.0,4.0,50,0.00,,,0.00,meteohub,2013-02-24 00:28:00,
2013-02-23 16:33:00,52.2,34.2,30.04,SW,234,0.0,4.0,50,0.00,,,0.00,meteohub,2013-02-24 00:33:00,
2013-02-23 16:38:00,52.0,34.3,30.04,SW,234,0.0,2.0,51,0.00,,,0.00,meteohub,2013-02-24 00:38:00,
2013-02-23 16:43:00,51.4,34.3,30.04,SW,234,0.0,1.0,52,0.00,,,0.00,meteohub,2013-02-24 00:43:00,
2013-02-23 16:48:00,51.4,34.9,30.04,SW,234,0.0,1.0,53,0.00,,,0.00,meteohub,2013-02-24 00:48:00,
2013-02-23 16:53:00,51.4,35.4,30.04,SW,234,0.0,4.0,54,0.00,,,0.00,meteohub,2013-02-24 00:53:00,
2013-02-23 16:58:00,51.3,34.7,30.04,SW,234,0.0,4.0,53,0.00,,,0.00,meteohub,2013-02-24 00:58:00,
2013-02-23 17:03:00,51.3,34.2,30.04,SW,234,1.0,4.0,52,0.00,,,0.00,meteohub,2013-02-24 01:03:00,
2013-02-23 17:08:00,51.3,35.6,30.04,SW,234,1.0,2.0,55,0.00,,,0.00,meteohub,2013-02-24 01:08:00,
2013-02-23 17:13:00,51.1,34.0,30.04,SW,234,1.0,2.0,52,0.00,,,0.00,meteohub,2013-02-24 01:13:00,
2013-02-23 17:18:00,51.3,34.7,30.04,SW,234,0.0,3.0,53,0.00,,,0.00,meteohub,2013-02-24 01:18:00,
2013-02-23 17:23:00,51.4,35.8,30.04,SW,234,0.0,3.0,55,0.00,,,0.00,meteohub,2013-02-24 01:23:00,
2013-02-23 17:28:00,51.3,34.7,30.06,SW,234,0.0,3.0,53,0.00,,,0.00,meteohub,2013-02-24 01:28:00,
2013-02-23 17:33:00,51.1,34.5,30.06,SW,234,0.0,2.0,53,0.00,,,0.00,meteohub,2013-02-24 01:33:00,
2013-02-23 17:38:00,51.1,34.0,30.06,SW,234,0.0,4.0,52,0.00,,,0.00,meteohub,2013-02-24 01:38:00,
2013-02-23 17:43:00,51.3,35.2,30.06,SW,234,3.0,4.0,54,0.00,,,0.00,meteohub,2013-02-24 01:43:00,
2013-02-23 17:48:00,51.3,34.7,30.06,West,277,1.0,5.0,53,0.00,,,0.00,meteohub,2013-02-24 01:48:00,
2013-02-23 17:53:00,51.4,34.9,30.06,West,273,4.0,7.0,53,0.00,,,0.00,meteohub,2013-02-24 01:53:00,
2013-02-23 17:58:00,51.4,34.9,30.06,West,268,0.0,9.0,53,0.00,,,0.00,meteohub,2013-02-24 01:58:00,
2013-02-23 18:03:00,51.4,34.9,30.06,West,268,0.0,9.0,53,0.00,,,0.00,meteohub,2013-02-24 02:03:00,
2013-02-23 18:08:00,51.1,35.1,30.06,West,268,0.0,5.0,54,0.00,,,0.00,meteohub,2013-02-24 02:08:00,
2013-02-23 18:13:00,50.7,35.1,30.06,West,267,0.0,5.0,55,0.00,,,0.00,meteohub,2013-02-24 02:13:00,
2013-02-23 18:18:00,50.4,35.2,30.06,West,267,1.0,4.0,56,0.00,,,0.00,meteohub,2013-02-24 02:18:00,
2013-02-23 18:23:00,50.2,35.6,30.06,West,267,1.0,4.0,57,0.00,,,0.00,meteohub,2013-02-24 02:23:00,
2013-02-23 18:28:00,49.8,35.2,30.07,West,266,0.0,5.0,57,0.00,,,0.00,meteohub,2013-02-24 02:28:00,
2013-02-23 18:33:00,49.8,35.2,30.07,West,269,0.0,6.0,57,0.00,,,0.00,meteohub,2013-02-24 02:33:00,
2013-02-23 18:38:00,49.6,35.1,30.07,West,269,0.0,6.0,57,0.00,,,0.00,meteohub,2013-02-24 02:38:00,
2013-02-23 18:43:00,49.5,35.2,30.08,West,269,3.0,6.0,58,0.00,,,0.00,meteohub,2013-02-24 02:43:00,
2013-02-23 18:48:00,49.3,35.1,30.08,West,277,3.0,5.0,58,0.00,,,0.00,meteohub,2013-02-24 02:48:00,
2013-02-23 18:53:00,49.3,35.1,30.08,West,276,1.0,7.0,58,0.00,,,0.00,meteohub,2013-02-24 02:53:00,
2013-02-23 18:58:00,49.3,35.1,30.08,West,276,0.0,7.0,58,0.00,,,0.00,meteohub,2013-02-24 02:58:00,
2013-02-23 19:03:00,48.9,35.2,30.08,West,276,0.0,5.0,59,0.00,,,0.00,meteohub,2013-02-24 03:03:00,
2013-02-23 19:08:00,48.9,35.2,30.08,WSW,242,2.0,4.0,59,0.00,,,0.00,meteohub,2013-02-24 03:08:00,
2013-02-23 19:13:00,48.9,35.2,30.09,West,267,1.0,7.0,59,0.00,,,0.00,meteohub,2013-02-24 03:13:00,
2013-02-23 19:18:00,48.7,35.1,30.09,WSW,257,2.0,12.0,59,0.00,,,0.00,meteohub,2013-02-24 03:18:00,
2013-02-23 19:23:00,48.7,35.1,30.09,WSW,256,0.0,12.0,59,0.00,,,0.00,meteohub,2013-02-24 03:23:00,
2013-02-23 19:28:00,48.6,35.2,30.09,NNE,14,3.0,9.0,60,0.00,,,0.00,meteohub,2013-02-24 03:28:00,
2013-02-23 19:33:00,48.4,35.1,30.09,NW,324,1.0,7.0,60,0.00,,,0.00,meteohub,2013-02-24 03:33:00,
2013-02-23 19:38:00,48.2,34.9,30.09,WSW,242,2.0,7.0,60,0.00,,,0.00,meteohub,2013-02-24 03:38:00,
2013-02-23 19:43:00,48.0,34.9,30.08,WSW,246,5.0,7.0,60,0.00,,,0.00,meteohub,2013-02-24 03:43:00,
2013-02-23 19:48:00,47.8,35.1,30.08,WSW,247,1.0,6.0,61,0.00,,,0.00,meteohub,2013-02-24 03:48:00,
2013-02-23 19:53:00,47.7,35.6,30.08,WSW,247,0.0,6.0,63,0.00,,,0.00,meteohub,2013-02-24 03:53:00,
2013-02-23 19:58:00,47.3,35.4,30.09,WSW,247,0.0,6.0,63,0.00,,,0.00,meteohub,2013-02-24 03:58:00,
2013-02-23 20:03:00,46.9,35.4,30.09,WSW,247,0.0,4.0,64,0.00,,,0.00,meteohub,2013-02-24 04:03:00,
2013-02-23 20:08:00,46.8,35.6,30.09,WSW,247,0.0,3.0,65,0.00,,,0.00,meteohub,2013-02-24 04:08:00,
2013-02-23 20:13:00,46.8,35.2,30.09,WSW,247,0.0,3.0,64,0.00,,,0.00,meteohub,2013-02-24 04:13:00,
2013-02-23 20:18:00,46.6,35.1,30.09,WSW,247,1.0,3.0,64,0.00,,,0.00,meteohub,2013-02-24 04:18:00,
2013-02-23 20:23:00,46.6,36.1,30.09,WSW,247,0.0,2.0,67,0.00,,,0.00,meteohub,2013-02-24 04:23:00,
2013-02-23 20:28:00,46.2,35.4,30.09,WSW,247,0.0,3.0,66,0.00,,,0.00,meteohub,2013-02-24 04:28:00,
2013-02-23 20:33:00,46.0,35.2,30.09,WSW,247,0.0,3.0,66,0.00,,,0.00,meteohub,2013-02-24 04:33:00,
2013-02-23 20:38:00,45.9,35.1,30.09,WSW,247,0.0,2.0,66,0.00,,,0.00,meteohub,2013-02-24 04:38:00,
2013-02-23 20:43:00,45.7,35.1,30.09,WSW,247,0.0,2.0,66,0.00,,,0.00,meteohub,2013-02-24 04:43:00,
2013-02-23 20:48:00,45.7,35.1,30.09,WSW,247,0.0,2.0,66,0.00,,,0.00,meteohub,2013-02-24 04:48:00,
2013-02-23 20:54:00,45.7,35.4,30.09,WSW,247,0.0,3.0,67,0.00,,,0.00,meteohub,2013-02-24 04:54:00,
2013-02-23 20:59:00,45.5,35.2,30.09,WSW,247,0.0,3.0,67,0.00,,,0.00,meteohub,2013-02-24 04:59:00,
2013-02-23 21:00:00,45.3,34.3,30.09,WSW,247,0.0,3.0,65,0.00,,,0.00,meteohub,2013-02-24 05:00:00,
2013-02-23 21:05:00,45.3,34.3,30.09,WSW,247,0.0,2.0,65,0.00,,,0.00,meteohub,2013-02-24 05:05:00,
2013-02-23 21:10:00,45.3,35.1,30.09,WSW,247,0.0,3.0,67,0.00,,,0.00,meteohub,2013-02-24 05:10:00,
2013-02-23 21:15:00,45.3,35.4,30.09,WSW,247,1.0,3.0,68,0.00,,,0.00,meteohub,2013-02-24 05:15:00,
2013-02-23 21:20:00,45.1,34.5,30.09,WSW,247,0.0,3.0,66,0.00,,,0.00,meteohub,2013-02-24 05:20:00,
2013-02-23 21:25:00,45.1,34.9,30.10,WSW,247,1.0,3.0,67,0.00,,,0.00,meteohub,2013-02-24 05:25:00,
2013-02-23 21:31:00,45.0,34.3,30.10,WSW,247,0.0,3.0,66,0.00,,,0.00,meteohub,2013-02-24 05:31:00,
2013-02-23 21:36:00,45.0,33.4,30.10,WSW,247,0.0,4.0,64,0.00,,,0.00,meteohub,2013-02-24 05:36:00,
2013-02-23 21:41:00,45.0,32.7,30.10,WSW,245,2.0,4.0,62,0.00,,,0.00,meteohub,2013-02-24 05:41:00,
2013-02-23 21:46:00,45.7,32.2,30.10,WSW,244,0.0,4.0,59,0.00,,,0.00,meteohub,2013-02-24 05:46:00,
2013-02-23 21:51:00,45.9,34.3,30.10,WSW,244,0.0,5.0,64,0.00,,,0.00,meteohub,2013-02-24 05:51:00,
2013-02-23 21:56:00,46.0,31.3,30.10,WSW,244,3.0,5.0,56,0.00,,,0.00,meteohub,2013-02-24 05:56:00,
2013-02-23 22:01:00,46.6,30.7,30.10,WSW,244,0.0,4.0,54,0.00,,,0.00,meteohub,2013-02-24 06:01:00,
2013-02-23 22:06:00,46.6,31.6,30.10,WSW,244,0.0,4.0,56,0.00,,,0.00,meteohub,2013-02-24 06:06:00,
2013-02-23 22:11:00,46.2,30.9,30.11,WSW,244,0.0,3.0,55,0.00,,,0.00,meteohub,2013-02-24 06:11:00,
2013-02-23 22:16:00,45.7,32.2,30.11,WSW,244,0.0,3.0,59,0.00,,,0.00,meteohub,2013-02-24 06:16:00,
2013-02-23 22:21:00,45.0,32.0,30.11,WSW,244,0.0,1.0,60,0.00,,,0.00,meteohub,2013-02-24 06:21:00,
2013-02-23 22:26:00,44.2,32.0,30.11,WSW,244,0.0,1.0,62,0.00,,,0.00,meteohub,2013-02-24 06:26:00,
2013-02-23 22:31:00,43.9,32.5,30.11,WSW,244,0.0,1.0,64,0.00,,,0.00,meteohub,2013-02-24 06:31:00,
2013-02-23 22:36:00,43.2,31.1,30.11,WSW,244,0.0,2.0,62,0.00,,,0.00,meteohub,2013-02-24 06:36:00,
2013-02-23 22:41:00,42.8,31.8,30.11,WSW,244,0.0,2.0,65,0.00,,,0.00,meteohub,2013-02-24 06:41:00,
2013-02-23 22:46:00,42.6,31.6,30.11,WSW,244,2.0,2.0,65,0.00,,,0.00,meteohub,2013-02-24 06:46:00,
2013-02-23 22:51:00,42.8,31.5,30.11,WSW,244,0.0,3.0,64,0.00,,,0.00,meteohub,2013-02-24 06:51:00,
2013-02-23 22:56:00,42.8,31.8,30.11,WSW,244,0.0,3.0,65,0.00,,,0.00,meteohub,2013-02-24 06:56:00,
2013-02-23 23:01:00,42.6,31.3,30.11,WSW,244,0.0,3.0,64,0.00,,,0.00,meteohub,2013-02-24 07:01:00,
2013-02-23 23:06:00,42.4,31.5,30.11,WSW,244,0.0,1.0,65,0.00,,,0.00,meteohub,2013-02-24 07:06:00,
2013-02-23 23:11:00,42.4,31.1,30.11,WSW,244,0.0,1.0,64,0.00,,,0.00,meteohub,2013-02-24 07:11:00,
2013-02-23 23:16:00,42.6,30.9,30.11,WSW,244,0.0,1.0,63,0.00,,,0.00,meteohub,2013-02-24 07:16:00,
2013-02-23 23:21:00,42.6,30.6,30.11,WSW,244,0.0,1.0,62,0.00,,,0.00,meteohub,2013-02-24 07:21:00,
2013-02-23 23:26:00,43.0,30.4,30.11,WSW,244,0.0,1.0,61,0.00,,,0.00,meteohub,2013-02-24 07:26:00,
2013-02-23 23:31:00,42.8,29.5,30.11,WSW,244,0.0,1.0,59,0.00,,,0.00,meteohub,2013-02-24 07:31:00,
2013-02-23 23:36:00,42.6,30.2,30.11,WSW,244,0.0,1.0,61,0.00,,,0.00,meteohub,2013-02-24 07:36:00,
2013-02-23 23:41:00,42.1,30.0,30.11,WSW,244,0.0,1.0,62,0.00,,,0.00,meteohub,2013-02-24 07:41:00,
2013-02-23 23:46:00,41.7,30.0,30.11,WSW,244,0.0,1.0,63,0.00,,,0.00,meteohub,2013-02-24 07:46:00,
2013-02-23 23:51:00,41.5,30.7,30.11,WSW,244,0.0,2.0,65,0.00,,,0.00,meteohub,2013-02-24 07:51:00,
2013-02-23 23:56:00,41.5,31.5,30.11,WSW,244,0.0,3.0,67,0.00,,,0.00,meteohub,2013-02-24 07:56:00,